Weather History for Salida, CO

Change the Weather History Date:

Monday, June 9, 2014

  Actual Average (KGUC) Record (KGUC)
Temperature  
Mean Temperature 58 °F -  
Max Temperature 76 °F 69 °F 82 °F (2002)
Min Temperature 39 °F 35 °F 26 °F (2008)
Degree Days  
Heating Degree Days 8    
Growing Degree Days 8 (Base 50)    
Moisture  
Dew Point 23 °F    
Average Humidity 36    
Maximum Humidity 73    
Minimum Humidity 8    
Precipitation  
Precipitation 0.00 in - - ()
Sea Level Pressure  
Sea Level Pressure 30.25 in    
Wind  
Wind Speed 7 mph (NNW)    
Max Wind Speed 17 mph    
Max Gust Speed 26 mph    
Visibility 10 miles    
Events      
Averages and records for this station are not official NWS values.
T = Trace of Precipitation, MM = Missing Value Source: NWS Daily Summary

Daily Weather History Graph

Daily Weather History Graph

Search for Another Location

Airport:

Trip Planner

Search our weather history database for the weather conditions in past years. The results will help you decide how hot, cold, wet, or windy it might be!

Date:

Astronomy

Jun. 09, 2014 Rise Set
Actual Time 5:39 AM MDT 8:27 PM MDT
Civil Twilight 5:08 AM MDT 8:59 PM MDT
Nautical Twilight 4:28 AM MDT 9:38 PM MDT
Astronomical Twilight 3:43 AM MDT 10:24 PM MDT
Moon 4:53 PM MDT (6/9) 3:05 AM MDT (6/9)
Length of Visible Light 15h 51m
Length of Day
14h 47m
Waxing Gibbous, 85% of the Moon is Illuminated
Jun 9
Waxing Gibbous
Jun 12
Full
Jun 19
Last Quarter
Jun 27
New
Jul 5
First Quarter

Hourly Weather History & Observations

Time (MDT) Temp. Windchill Dew Point Humidity Pressure Visibility Wind Dir Wind Speed Gust Speed Precip Events Conditions
12:15 AM 45.0 °F 41.8 °F 35.2 °F 69% 30.26 in 10.0 mi West 5.8 mph - N/A   Scattered Clouds
12:35 AM 43.7 °F 40.3 °F 34.3 °F 70% 30.27 in 10.0 mi West 5.8 mph - N/A   Clear
12:55 AM 45.3 °F 44.0 °F 34.7 °F 66% 30.27 in 10.0 mi WNW 3.5 mph - N/A   Clear
1:15 AM 44.6 °F - 34.7 °F 68% 30.27 in 10.0 mi Calm Calm - N/A   Clear
1:35 AM 44.6 °F - 34.3 °F 67% 30.27 in 10.0 mi Calm Calm - N/A   Clear
1:55 AM 46.2 °F 42.7 °F 33.8 °F 62% 30.27 in 10.0 mi NNW 6.9 mph - N/A   Clear
2:15 AM 46.8 °F - 33.4 °F 60% 30.27 in 10.0 mi NW 8.1 mph - N/A   Clear
2:35 AM 47.3 °F - 32.9 °F 57% 30.27 in 10.0 mi NNW 9.2 mph - N/A   Clear
2:55 AM 45.3 °F 41.6 °F 33.1 °F 62% 30.27 in 10.0 mi WNW 6.9 mph - N/A   Clear
3:15 AM 42.8 °F 38.6 °F 32.9 °F 68% 30.28 in 10.0 mi West 6.9 mph - N/A   Clear
3:35 AM 41.4 °F 35.7 °F 32.5 °F 71% 30.29 in 10.0 mi WNW 9.2 mph - N/A   Clear
3:55 AM 45.1 °F 39.5 °F 32.2 °F 60% 30.29 in 10.0 mi NW 11.5 mph - N/A   Clear
4:15 AM 46.6 °F - 32.0 °F 57% 30.29 in 10.0 mi WNW 8.1 mph - N/A   Clear
4:35 AM 41.5 °F 37.1 °F 32.0 °F 69% 30.29 in 10.0 mi WNW 6.9 mph - N/A   Clear
4:55 AM 44.1 °F 38.1 °F 31.5 °F 61% 30.29 in 10.0 mi NW 11.5 mph - N/A   Clear
5:15 AM 41.7 °F 38.8 °F 31.6 °F 67% 30.30 in 10.0 mi West 4.6 mph - N/A   Clear
5:35 AM 39.4 °F 35.2 °F 31.5 °F 73% 30.30 in 10.0 mi West 5.8 mph - N/A   Clear
5:55 AM 45.1 °F 40.3 °F 28.9 °F 53% 30.30 in 10.0 mi NW 9.2 mph - N/A   Clear
6:15 AM 45.0 °F 41.2 °F 28.8 °F 53% 30.30 in 10.0 mi NW 6.9 mph - N/A   Clear
6:55 AM 46.4 °F 41.9 °F 27.0 °F 47% 30.31 in 10.0 mi NNW 9.2 mph - N/A   Clear
7:15 AM 47.8 °F - 25.5 °F 42% 30.31 in 10.0 mi North 15.0 mph 24.2 mph N/A   Clear
7:35 AM 48.4 °F - 24.4 °F 39% 30.31 in 10.0 mi NNW 16.1 mph 20.7 mph N/A   Clear
7:55 AM 49.6 °F - 25.5 °F 39% 30.32 in 10.0 mi North 3.5 mph - N/A   Clear
8:15 AM 51.8 °F - 23.7 °F 33% 30.32 in 10.0 mi North 11.5 mph - N/A   Clear
9:15 AM 54.9 °F - 18.1 °F 24% 30.31 in 10.0 mi North 12.7 mph 16.1 mph N/A   Clear
9:35 AM 56.7 °F - 11.1 °F 16% 30.30 in 10.0 mi North 12.7 mph 21.9 mph N/A   Clear
9:55 AM 58.5 °F - 8.2 °F 14% 30.30 in 10.0 mi NNW 11.5 mph 17.3 mph N/A   Clear
10:35 AM 59.9 °F - 6.1 °F 12% 30.29 in 10.0 mi NW 12.7 mph 19.6 mph N/A   Clear
10:55 AM 60.8 °F - 9.5 °F 13% 30.29 in 10.0 mi North 8.1 mph - N/A   Clear
11:15 AM 62.1 °F - 8.2 °F 12% 30.29 in 10.0 mi NW 10.4 mph - N/A   Clear
11:35 AM 63.7 °F - 9.3 °F 12% 30.28 in 10.0 mi NNE 4.6 mph - N/A   Clear
12:15 PM 65.8 °F - 10.0 °F 11% 30.26 in 10.0 mi NNW 3.5 mph 16.1 mph N/A   Clear
12:35 PM 67.1 °F - 9.9 °F 11% 30.25 in 10.0 mi NNW 3.5 mph - N/A   Clear
12:55 PM 68.0 °F - 8.4 °F 10% 30.24 in 10.0 mi West 5.8 mph - N/A   Clear
2:15 PM 72.9 °F - 11.3 °F 9% 30.21 in 10.0 mi ENE 5.8 mph - N/A   Clear
2:35 PM 73.2 °F - 9.1 °F 8% 30.20 in 10.0 mi North 4.6 mph - N/A   Clear
2:55 PM 72.1 °F - 6.4 °F 8% 30.20 in 10.0 mi NNE 3.5 mph - N/A   Clear
3:15 PM 72.7 °F - 10.2 °F 9% 30.19 in 10.0 mi NNW 3.5 mph - N/A   Clear
3:35 PM 74.8 °F - 7.7 °F 8% 30.18 in 10.0 mi SSW 9.2 mph - N/A   Clear
3:55 PM 74.5 °F - 8.1 °F 8% 30.18 in 10.0 mi West 4.6 mph - N/A   Clear
4:15 PM - - - N/A% 30.17 in 10.0 mi Calm Calm - N/A   Clear
4:35 PM - - - N/A% 30.17 in 10.0 mi NNW 9.2 mph - N/A   Clear
4:55 PM - - - N/A% 30.16 in 10.0 mi Calm Calm - N/A   Clear
5:15 PM - - - N/A% 30.15 in 10.0 mi South 3.5 mph - N/A   Clear
5:35 PM - - - N/A% 30.15 in 10.0 mi NNW 10.4 mph 18.4 mph N/A   Clear
5:55 PM 76.6 °F - 9.1 °F 8% 30.15 in 10.0 mi North 13.8 mph 24.2 mph N/A   Clear
6:15 PM - - - N/A% 30.16 in 10.0 mi North 9.2 mph - N/A   Clear
6:35 PM 75.6 °F - 11.7 °F 9% 30.17 in 10.0 mi North 9.2 mph 20.7 mph N/A   Clear
6:55 PM - - - N/A% 30.17 in 10.0 mi North 11.5 mph 18.4 mph N/A   Clear
7:15 PM - - - N/A% 30.19 in 10.0 mi North 10.4 mph 17.3 mph N/A   Clear
7:35 PM - - - N/A% 30.19 in 10.0 mi ESE 16.1 mph 23.0 mph N/A   Clear
7:55 PM 65.3 °F - 22.3 °F 19% 30.21 in 10.0 mi ESE 12.7 mph 26.5 mph N/A   Clear
8:15 PM 63.3 °F - 23.2 °F 22% 30.22 in 10.0 mi ESE 17.3 mph 25.3 mph N/A   Clear
8:35 PM 62.1 °F - 23.7 °F 23% 30.23 in 10.0 mi ESE 13.8 mph 20.7 mph N/A   Clear
8:55 PM 60.8 °F - 24.4 °F 25% 30.24 in 10.0 mi East 13.8 mph 19.6 mph N/A   Clear
9:15 PM 59.7 °F - 25.5 °F 27% 30.25 in 10.0 mi ESE 9.2 mph - N/A   Clear
9:35 PM 58.6 °F - 25.7 °F 28% 30.26 in 10.0 mi ESE 11.5 mph 17.3 mph N/A   Clear
9:55 PM 57.6 °F - 26.2 °F 30% 30.27 in 10.0 mi ESE 9.2 mph - N/A   Clear
10:15 PM 57.0 °F - 26.2 °F 31% 30.27 in 10.0 mi SE 9.2 mph - N/A   Clear
10:35 PM 56.3 °F - 26.4 °F 32% 30.28 in 10.0 mi SE 10.4 mph - N/A   Clear
10:55 PM 55.4 °F - 26.6 °F 33% 30.28 in 10.0 mi South 5.8 mph - N/A   Clear
11:15 PM 54.3 °F - 25.7 °F 33% 30.29 in 10.0 mi South 3.5 mph - N/A   Clear
11:35 PM 54.3 °F - 26.1 °F 34% 30.29 in 10.0 mi South 4.6 mph - N/A   Clear
11:55 PM 54.5 °F - 26.4 °F 34% 30.29 in 10.0 mi South 9.2 mph - N/A   Clear